UAL322 KRDU-KIND

Flight info

Callsign UAL322
Flight time N/A
Altitude 32000
Route LWOOD5 DANCO ZIEBR HAGAL GIIBS4
Aircraft A319/M-SDE3FGHIRWY/LB1

Departure

Time 2026-05-07 02:01
Airport Raleigh-Durham International Airport (KRDU)

Arrival

Time N/A
Airport Indianapolis International Airport (KIND)
Time Latitude Longitude Altitude Speed Heading
2026-05-07 01:35 35.87878 -78.79125 398 ft 0 kts 315°
2026-05-07 01:48 35.87870 -78.79115 398 ft 2 kts 327°
2026-05-07 01:48 35.87856 -78.79108 399 ft 2 kts 346°
2026-05-07 01:48 35.87842 -78.79106 399 ft 2 kts
2026-05-07 01:49 35.87827 -78.79111 399 ft 2 kts 24°
2026-05-07 01:49 35.87815 -78.79120 399 ft 0 kts 42°
2026-05-07 01:49 35.87811 -78.79125 399 ft 1 kts 46°
2026-05-07 01:49 35.87810 -78.79126 399 ft 0 kts 46°
2026-05-07 01:52 35.87814 -78.79122 399 ft 1 kts 46°
2026-05-07 01:52 35.87824 -78.79109 400 ft 2 kts 46°
2026-05-07 01:53 35.87841 -78.79086 400 ft 4 kts 47°
2026-05-07 01:53 35.87863 -78.79060 402 ft 5 kts 44°
2026-05-07 01:53 35.87898 -78.79017 402 ft 8 kts 43°
2026-05-07 01:53 35.87952 -78.78971 403 ft 10 kts 28°
2026-05-07 01:54 35.88020 -78.78975 400 ft 10 kts 323°
2026-05-07 01:54 35.88076 -78.79044 396 ft 10 kts 321°
2026-05-07 01:54 35.88145 -78.79041 395 ft 11 kts 41°
2026-05-07 01:54 35.88200 -78.78973 397 ft 10 kts 46°
2026-05-07 01:55 35.88247 -78.78912 399 ft 9 kts 46°
2026-05-07 01:55 35.88296 -78.78852 400 ft 11 kts 45°
2026-05-07 01:55 35.88356 -78.78777 401 ft 12 kts 45°
2026-05-07 01:55 35.88421 -78.78696 403 ft 13 kts 45°
2026-05-07 01:56 35.88492 -78.78608 404 ft 15 kts 46°
2026-05-07 01:56 35.88573 -78.78507 403 ft 17 kts 45°
2026-05-07 01:56 35.88663 -78.78397 401 ft 18 kts 45°
2026-05-07 01:56 35.88760 -78.78278 399 ft 20 kts 45°
2026-05-07 01:57 35.88860 -78.78155 399 ft 20 kts 44°
2026-05-07 01:57 35.88957 -78.78027 399 ft 20 kts 56°
2026-05-07 01:57 35.89020 -78.77882 401 ft 18 kts 53°
2026-05-07 01:57 35.89109 -78.77766 403 ft 18 kts 45°
2026-05-07 01:58 35.89172 -78.77688 405 ft 10 kts 44°
2026-05-07 01:58 35.89234 -78.77656 404 ft 10 kts 344°
2026-05-07 01:58 35.89288 -78.77714 403 ft 6 kts 314°
2026-05-07 01:58 35.89298 -78.77726 403 ft 0 kts 314°
2026-05-07 01:59 35.89304 -78.77733 403 ft 2 kts 314°
2026-05-07 01:59 35.89333 -78.77769 402 ft 8 kts 314°
2026-05-07 02:00 35.89343 -78.77850 402 ft 4 kts 226°
2026-05-07 02:00 35.89342 -78.77851 401 ft 0 kts 225°
2026-05-07 02:00 35.89274 -78.77937 398 ft 49 kts 224°
2026-05-07 02:01 35.88832 -78.78477 394 ft 127 kts 225°
2026-05-07 02:01 35.88070 -78.79404 574 ft 170 kts 222°
2026-05-07 02:01 35.87207 -78.80402 1246 ft 180 kts 223°
2026-05-07 02:01 35.86196 -78.81504 1569 ft 205 kts 221°
2026-05-07 02:02 35.85061 -78.82696 1748 ft 228 kts 221°